CZ-3C DEB, 39346

Orbit data source: Space-Track

CZ-3C DEB, 39346 is space debris in HEO originally from a launch on Sun, 31 Oct 2010 UTC launched from the Xichang Space Center, China (XSC). Debris objects in space refer to the collection of defunct objects orbiting the Earth. Examples of debris include non-operational satellites, rocket bodies, and fragments generated from explosions, collisions, or faulty payload assembly.

Loading next visibility...
Identifier
39346, 2010-057L
Orbit
HEO
Country
Flag of CNCN / PRC
Related business
Manufacturer
CALT
Mission
Spacecraft
Bus & Motor
Unknown
Mass
Unknown
Launch date (UTC)
2010-10-31 (15 years ago)
Launch vehicle
Unknown
Launch site
Xichang Space Center, China (XSC)
Object type
Payload
Rocket body
Debris
Shape & HBR
Unknown shape, 0.5 m
Radar Cross Section
Large (>1 m²)

Expand to show TLE details & history
Last TLE update: 2 days ago

TLE from 2 days ago
0 CZ-3C DEB
1 39346U 10057L   25345.14516017  .00000098  00000-0  16754-2 0  9994
2 39346  20.1409 231.4181 7195175 269.9279  15.4299  2.17961115 96842
Epoch: 2025-12-11T03:29Z
TLE epoch observation values (Epoch: 2025-12-11T03:29:01.838Z)
Latitude
0.00064°
Longitude
99.20107°
Altitude
5,805.004 km
Speed
7.04 km/s
True Right ascension
15h 26m 15s
True Declination
0° 00' 02"
Sunlit
Object was in daylight at epoch
Visualization orbit readout
Latitude
Unknown
Longitude
Unknown
Altitude
Unknown
Speed
Unknown
Apparent Right ascension
Unknown
Apparent Declination
Unknown
Sunlit
N/A
Visualization observer readout
Local Sidereal Time
09:18:47
Azimuth
Unknown
Elevation
Unknown
Doppler factor
Unknown
Orbital elements
Apogee altitude
36,836.452 km
Perigee altitude
670.896 km
Semi-major axis
25,131.811 km
Eccentricity
0.71952
Inclination
20.1409°
RAAN
231.4181°
Arg. of periapsis
269.9279°
True anomaly
90.22175°
Mean anomaly
15.4299°
Eccentric anomaly
44.13956°
Mean motion
0.54476 °/min
Orbital period
660.84 mins
BSTAR
0.0016754
Loading maneuver chart data...
Computing Atmospheric mass density...
Loading historical data...
Loading historical data...
Loading historical data...
Loading historical data...
Loading historical data...
Loading historical data...
Loading historical data...

Documentation

Showing up to 5 results
|